User: anonymous   Login
Location: Unspecified
(0.0000°N, 0.0000°E)
Time: 00:27:46
(UTC+01:00)
Language:

Iridium 75 - Orbit

View from above orbital plane
View from above orbital plane
View from above satellite
View from above satellite

Ground track
Ground track

The orbit data is extracted from the following two-line orbital elements,

1 25346U 98032E   17054.55897800  .00000034  00000-0  52213-5 0  9996
2 25346  86.3930 271.6065 0002065  86.9480 329.9314 14.34218069983386
Epoch (UTC): 23 February 2017 13:24:55
Eccentricity: 0.0002065
inclination: 86.3930°
perigee height: 776 km
apogee height: 779 km
right ascension of ascending node: 271.6065°
argument of perigee: 86.9480°
revolutions per day: 14.34218069
mean anomaly at epoch: 329.9314°
orbit number at epoch: 98338

The dashed part of the orbit path shows where the satellite is in the earth's shadow,  

DLR